Location: Ettringen
(48.1054°N, 10.6545°E)
Time: 03:06:50
(UTC+00:00)

Cosmos 968 Rocket - Pass Details

Date: 18 November 2025
Orbit: 735 x 766 km, 74.0° (Epoch: 04 December)

Event Time Altitude Azimuth Distance (km) Brightness Sun altitude
Rises 18:15:06 0° 194° (SSW) 3,175 6.9 -26.3°
Reaches altitude 10° 18:17:27 10° 192° (SSW) 2,261 6.0 -26.7°
Enters shadow 18:20:19 34° 183° (S) 1,222 4.5 -27.2°
